Weather History for Teterboro, NJ

Change the Weather History Date:

Monday, August 11, 2014

  Actual Average Record
Temperature  
Mean Temperature 79 °F -  
Max Temperature 89 °F 83 °F 97 °F (2005)
Min Temperature 69 °F 65 °F 57 °F (2007)
Cooling Degree Days 14    
Growing Degree Days 29 (Base 50)    
Moisture  
Dew Point 57 °F    
Average Humidity 49    
Maximum Humidity 71    
Minimum Humidity 28    
Precipitation  
Precipitation 0.00 in - - ()
Sea Level Pressure  
Sea Level Pressure 30.11 in    
Wind  
Wind Speed 4 mph (South)    
Max Wind Speed 14 mph    
Max Gust Speed 21 mph    
Visibility 10 miles    
Events      
Averages and records for this station are not official NWS values.
T = Trace of Precipitation, MM = Missing Value Source: NWS Daily Summary

Daily Weather History Graph

Daily Weather History Graph

Search for Another Location

Airport:

Trip Planner

Search our weather history database for the weather conditions in past years. The results will help you decide how hot, cold, wet, or windy it might be!

Date:

Astronomy

Aug. 11, 2014 Rise Set
Actual Time 6:02 AM EDT 7:59 PM EDT
Civil Twilight 5:32 AM EDT 8:29 PM EDT
Nautical Twilight 4:55 AM EDT 9:05 PM EDT
Astronomical Twilight 4:16 AM EDT 9:45 PM EDT
Moon 8:25 PM EDT (8/11) 7:05 AM EDT (8/11)
Length of Visible Light 14h 57m
Length of Day
13h 57m
Full, 99% of the Moon is Illuminated
Aug 11
Full
Aug 17
Last Quarter
Aug 25
New
Sep 2
First Quarter
Sep 8
Full

Hourly Weather History & Observations

Time (EDT) Temp. Heat Index Dew Point Humidity Pressure Visibility Wind Dir Wind Speed Gust Speed Precip Events Conditions
12:51 AM 73.0 °F - 57.9 °F 59% 30.12 in 10.0 mi Calm Calm - N/A   Clear
1:51 AM 72.0 °F - 59.0 °F 64% 30.11 in 10.0 mi Calm Calm - N/A   Clear
2:51 AM 72.0 °F - 60.1 °F 66% 30.12 in 10.0 mi Calm Calm - N/A   Mostly Cloudy
3:51 AM 71.1 °F - 60.1 °F 68% 30.12 in 10.0 mi Calm Calm - N/A   Overcast
4:51 AM 69.8 °F - 59.0 °F 68% 30.12 in 10.0 mi WNW 3.5 mph - N/A   Scattered Clouds
5:51 AM 69.1 °F - 59.0 °F 70% 30.12 in 10.0 mi Calm Calm - N/A   Clear
6:51 AM 70.0 °F - 60.1 °F 71% 30.12 in 10.0 mi Calm Calm - N/A   Clear
7:51 AM 75.0 °F - 61.0 °F 62% 30.13 in 10.0 mi Calm Calm - N/A   Clear
8:51 AM 78.1 °F - 59.0 °F 52% 30.13 in 8.0 mi Calm Calm - N/A   Clear
9:51 AM 82.0 °F 82.1 °F 59.0 °F 45% 30.13 in 10.0 mi Calm Calm - N/A   Clear
10:51 AM 84.9 °F 84.2 °F 57.9 °F 40% 30.12 in 10.0 mi SSE 5.8 mph - N/A   Clear
11:51 AM 84.9 °F 83.3 °F 54.0 °F 34% 30.12 in 10.0 mi South 8.1 mph - N/A   Clear
12:51 PM 88.0 °F - 52.0 °F 29% 30.11 in 10.0 mi South 11.5 mph 18.4 mph N/A   Clear
1:51 PM 89.1 °F - 52.0 °F 28% 30.11 in 10.0 mi SSW 13.8 mph - N/A   Clear
2:40 PM 87.8 °F 85.7 °F 53.6 °F 31% 30.10 in 2.5 mi South 10.4 mph 20.7 mph N/A   Haze
2:47 PM 87.8 °F 85.7 °F 53.6 °F 31% 30.10 in 10.0 mi South 11.5 mph - N/A   Clear
2:51 PM 87.1 °F 85.1 °F 54.0 °F 32% 30.10 in 10.0 mi South 11.5 mph - N/A   Clear
3:51 PM 84.9 °F - 52.0 °F 32% 30.10 in 10.0 mi South 11.5 mph - N/A   Clear
4:51 PM 84.0 °F 82.5 °F 53.1 °F 34% 30.10 in 10.0 mi South 12.7 mph - N/A   Clear
5:51 PM 82.0 °F 81.3 °F 54.0 °F 38% 30.09 in 10.0 mi South 10.4 mph - N/A   Clear
6:51 PM 81.0 °F 80.4 °F 53.1 °F 38% 30.09 in 10.0 mi South 6.9 mph - N/A   Smoke
7:51 PM 79.0 °F - 55.9 °F 45% 30.09 in 10.0 mi South 9.2 mph - N/A   Clear
8:51 PM 77.0 °F - 57.9 °F 52% 30.09 in 10.0 mi SSE 5.8 mph - N/A   Clear
9:51 PM 75.9 °F - 63.0 °F 64% 30.09 in 10.0 mi South 5.8 mph - N/A   Clear
10:51 PM 75.2 °F - 62.6 °F 65% 30.08 in 10.0 mi South 9.2 mph - N/A   Clear